Cherry Point, NC

6:35 PM EDT on June 28, 2017 (GMT -0400)
Cherry Point Marine Corps Air Station

Weather History for KNKT - October, 2012

Change the Weather History Date:

Wednesday, October 10, 2012

  Actual Average Record
Temperature  
Mean Temperature 64 °F -  
Max Temperature 71 °F 74 °F 82 °F (1997)
Min Temperature 55 °F 54 °F 33 °F (2000)
Degree Days  
Heating Degree Days 2    
Growing Degree Days 14 (Base 50)    
Moisture  
Dew Point 53 °F    
Average Humidity 78    
Maximum Humidity 93    
Minimum Humidity 53    
Precipitation  
Precipitation 0.01 in - - ()
Sea Level Pressure  
Sea Level Pressure 30.04 in    
Wind  
Wind Speed 6 mph ()    
Max Wind Speed 9 mph    
Max Gust Speed 16 mph    
Visibility 8.6 miles    
Events      
Averages and records for this station are not official NWS values.
T = Trace of Precipitation, MM = Missing Value Source: Averaged Metar Reports

Daily Weather History Graph

Daily Weather History Graph

Search for Another Location

Airport or City:

Trip Planner

Search our weather history database for the weather conditions in past years. The results will help you decide how hot, cold, wet, or windy it might be!

Date:

Astronomy

Oct. 10, 2012 Rise Set
Actual Time 7:09 AM EDT 6:38 PM EDT
Civil Twilight 6:44 AM EDT 7:03 PM EDT
Nautical Twilight 6:14 AM EDT 7:33 PM EDT
Astronomical Twilight 5:45 AM EDT 8:02 PM EDT
Moon 1:55 AM EDT (10/10) 3:29 PM EDT (10/10)
Length of Visible Light 12h 19m
Length of Day
11h 28m
Waning Crescent, 27% of the Moon is Illuminated
Oct 10
Waning Crescent
Oct 15
New
Oct 21
First Quarter
Oct 29
Full
Nov 6
Last Quarter

Hourly Weather History & Observations

Time (EDT) Temp. Dew Point Humidity Pressure Visibility Wind Dir Wind Speed Gust Speed Precip Events Conditions
12:54 AM 57.0 °F 55.0 °F 93% 30.06 in 7.0 mi WSW 3.5 mph - N/A   Overcast
1:54 AM 57.0 °F 55.0 °F 93% 30.06 in 7.0 mi West 6.9 mph - N/A   Overcast
2:54 AM 57.0 °F 55.0 °F 93% 30.05 in 4.0 mi West 9.2 mph - N/A   Overcast
3:54 AM 57.0 °F 55.0 °F 93% 30.04 in 7.0 mi West 8.1 mph - 0.01 in   Overcast
4:54 AM 57.0 °F 54.0 °F 89% 30.04 in 6.0 mi West 9.2 mph - N/A   Overcast
5:22 AM 57.2 °F 53.6 °F 88% 30.05 in 7.0 mi West 9.2 mph - N/A   Overcast
5:54 AM 57.0 °F 54.0 °F 89% 30.04 in 6.0 mi West 8.1 mph - N/A   Overcast
6:33 AM 57.2 °F 53.6 °F 88% 30.06 in 7.0 mi West 8.1 mph - N/A   Overcast
6:54 AM 57.0 °F 54.0 °F 89% 30.05 in 7.0 mi WNW 6.9 mph - N/A   Overcast
7:54 AM 57.0 °F 54.0 °F 89% 30.07 in 7.0 mi WNW 6.9 mph - N/A   Overcast
8:54 AM 57.9 °F 54.0 °F 87% 30.08 in 9.0 mi WNW 9.2 mph - N/A   Overcast
9:54 AM 59.0 °F 52.0 °F 78% 30.09 in 10.0 mi WNW 8.1 mph - N/A   Overcast
10:54 AM 61.0 °F 52.0 °F 72% 30.08 in 10.0 mi NW 6.9 mph - N/A   Overcast
11:54 AM 63.0 °F 51.1 °F 65% 30.06 in 10.0 mi NNW 9.2 mph - N/A   Scattered Clouds
12:54 PM 64.9 °F 52.0 °F 63% 30.04 in 10.0 mi NW 8.1 mph - N/A   Scattered Clouds
1:54 PM 69.1 °F 53.1 °F 57% 30.00 in 10.0 mi NW 6.9 mph - N/A   Scattered Clouds
2:54 PM 69.1 °F 52.0 °F 54% 29.99 in 10.0 mi Variable 5.8 mph 16.1 mph N/A   Partly Cloudy
3:54 PM 70.0 °F 52.0 °F 53% 29.97 in 10.0 mi West 6.9 mph - N/A   Partly Cloudy
4:54 PM 69.1 °F 52.0 °F 54% 29.97 in 10.0 mi West 8.1 mph - N/A   Clear
5:54 PM 68.0 °F 52.0 °F 56% 29.98 in 10.0 mi WNW 5.8 mph - N/A   Clear
6:54 PM 64.0 °F 53.1 °F 67% 30.00 in 10.0 mi WNW 5.8 mph - N/A   Clear
7:54 PM 59.0 °F 54.0 °F 83% 30.02 in 10.0 mi WSW 4.6 mph - N/A   Clear
8:54 PM 59.0 °F 53.1 °F 81% 30.05 in 10.0 mi SW 3.5 mph - N/A   Clear
9:54 PM 57.9 °F 54.0 °F 87% 30.07 in 10.0 mi Calm Calm - N/A   Clear
10:54 PM 57.0 °F 53.1 °F 87% 30.08 in 10.0 mi Calm Calm - N/A   Clear
11:54 PM 55.9 °F 53.1 °F 90% 30.09 in 10.0 mi Calm Calm - N/A   Clear